User: anonymous   Login
Location: Unspecified
(0.0000°N, 0.0000°E)
Time: 17:37:38
(UTC+00:00)
Language:

BIRD NN - Orbit

View from above orbital plane
View from above orbital plane
View from above satellite
View from above satellite

Ground track
Ground track

The orbit data is extracted from the following two-line orbital elements,

1 42824U 98067MY  19051.59813054 +.00058811 +00000-0 +24755-3 0  9990
2 42824 051.6321 165.2585 0003529 030.0401 330.0804 15.84890865092989
Epoch (UTC): 20 February 2019 14:21:18
Eccentricity: 0.0003529
inclination: 51.6321°
perigee height: 314 km
apogee height: 319 km
right ascension of ascending node: 165.2585°
argument of perigee: 30.0401°
revolutions per day: 15.84890865
mean anomaly at epoch: 330.0804°
orbit number at epoch: 9298

The dashed part of the orbit path shows where the satellite is in the earth's shadow,  

DLR